Weather History for KMEM - March, 2013

Change the Weather History Date:

Monday, March 11, 2013

  Actual Average Record
Temperature  
Mean Temperature 44 °F 52 °F  
Max Temperature 48 °F 62 °F 85 °F (1911)
Min Temperature 39 °F 43 °F 20 °F (1969)
Degree Days  
Heating Degree Days 21 13  
Month to date heating degree days 207 157  
Since 1 July heating degree days 2405 2607  
Cooling Degree Days 0 0  
Month to date cooling degree days 0 0  
Year to date cooling degree days 9 3  
Moisture  
Dew Point 33 °F    
Average Humidity 67    
Maximum Humidity 76    
Minimum Humidity 58    
Precipitation  
Precipitation 0.00 in 0.16 in 2.91 in (1927)
Month to date precipitation 1.49 1.74  
Year to date precipitation 15.06 10.11  
Snow  
Snow 0.00 in 0.00 in T in (2009)
Month to date snowfall T 0.2  
Since 1 July snowfall 0.9 3.6  
Snow Depth 0.00 in    
Sea Level Pressure  
Sea Level Pressure 29.92 in    
Wind  
Wind Speed 8 mph (West)    
Max Wind Speed 18 mph    
Max Gust Speed 24 mph    
Visibility 10 miles    
Events      
T = Trace of Precipitation, MM = Missing Value Source: NWS Daily Summary

Daily Weather History Graph

Daily Weather History Graph

Search for Another Location

Airport or City:

Trip Planner

Search our weather history database for the weather conditions in past years. The results will help you decide how hot, cold, wet, or windy it might be!

Date:

Astronomy

Mar. 11, 2013 Rise Set
Actual Time 7:15 AM CDT 7:04 PM CDT
Civil Twilight 6:50 AM CDT 7:29 PM CDT
Nautical Twilight 6:21 AM CDT 7:59 PM CDT
Astronomical Twilight 5:51 AM CDT 8:28 PM CDT
Moon 6:50 AM CDT (3/11) 7:14 PM CDT (3/11)
Length of Visible Light 12h 39m
Length of Day
11h 48m
Waning Crescent, 0% of the Moon is Illuminated
Mar 11
Waning Crescent
Mar 11
New
Mar 19
First Quarter
Mar 27
Full
Apr 2
Last Quarter

Hourly Weather History & Observations

Time (CDT) Temp. Windchill Dew Point Humidity Pressure Visibility Wind Dir Wind Speed Gust Speed Precip Events Conditions
12:54 AM 48.0 °F - 39.9 °F 74% 29.86 in 10.0 mi West 10.4 mph - N/A   Overcast
1:35 AM 46.4 °F 42.9 °F 39.2 °F 76% 29.87 in 10.0 mi West 6.9 mph - N/A   Overcast
1:54 AM 46.0 °F 40.2 °F 39.0 °F 76% 29.86 in 10.0 mi West 12.7 mph - N/A   Overcast
2:54 AM 45.0 °F 40.6 °F 37.0 °F 74% 29.86 in 10.0 mi WSW 8.1 mph - N/A   Overcast
3:54 AM 44.1 °F 38.6 °F 37.0 °F 76% 29.86 in 10.0 mi West 10.4 mph - N/A   Overcast
4:20 AM 44.6 °F 39.7 °F 37.4 °F 76% 29.86 in 10.0 mi West 9.2 mph - N/A   Mostly Cloudy
4:36 AM 44.6 °F 38.8 °F 35.6 °F 71% 29.85 in 10.0 mi West 11.5 mph - N/A   Overcast
4:54 AM 43.0 °F 36.8 °F 36.0 °F 76% 29.86 in 10.0 mi West 11.5 mph - N/A   Overcast
5:54 AM 42.1 °F 36.1 °F 35.1 °F 76% 29.87 in 10.0 mi West 10.4 mph - N/A   Overcast
6:11 AM 42.8 °F 37.0 °F 35.6 °F 76% 29.87 in 10.0 mi West 10.4 mph - N/A   Overcast
6:48 AM 41.0 °F 32.8 °F 33.8 °F 76% 29.90 in 10.0 mi West 16.1 mph 23.0 mph N/A   Overcast
6:54 AM 41.0 °F 33.1 °F 33.1 °F 73% 29.89 in 10.0 mi West 15.0 mph 23.0 mph N/A   Overcast
7:25 AM 39.2 °F 32.0 °F 30.2 °F 70% 29.89 in 10.0 mi West 11.5 mph - N/A   Overcast
7:54 AM 39.0 °F 31.8 °F 30.0 °F 70% 29.89 in 10.0 mi West 11.5 mph 21.9 mph N/A   Mostly Cloudy
8:17 AM 39.2 °F 32.5 °F 30.2 °F 70% 29.91 in 10.0 mi West 10.4 mph - N/A   Overcast
8:25 AM 39.2 °F 32.5 °F 30.2 °F 70% 29.93 in 10.0 mi WSW 10.4 mph 18.4 mph N/A   Mostly Cloudy
8:54 AM 39.0 °F 31.4 °F 30.9 °F 73% 29.91 in 10.0 mi West 12.7 mph 19.6 mph N/A   Overcast
9:54 AM 39.0 °F 32.3 °F 30.9 °F 73% 29.93 in 10.0 mi West 10.4 mph 18.4 mph N/A   Overcast
10:54 AM 39.9 °F 33.9 °F 32.0 °F 73% 29.95 in 10.0 mi West 9.2 mph - N/A   Overcast
11:54 AM 41.0 °F 33.9 °F 30.9 °F 67% 29.96 in 10.0 mi West 12.7 mph - N/A   Overcast
12:46 PM 41.0 °F 33.9 °F 30.2 °F 65% 29.96 in 10.0 mi WSW 12.7 mph - N/A   Overcast
12:54 PM 43.0 °F 37.7 °F 32.0 °F 65% 29.95 in 10.0 mi West 9.2 mph - N/A   Overcast
1:18 PM 42.8 °F 36.6 °F 30.2 °F 61% 29.95 in 10.0 mi WSW 11.5 mph 16.1 mph N/A   Overcast
1:54 PM 43.0 °F 37.7 °F 30.9 °F 62% 29.94 in 10.0 mi West 9.2 mph - N/A   Overcast
2:54 PM 43.0 °F 37.7 °F 30.9 °F 62% 29.94 in 10.0 mi WSW 9.2 mph - N/A   Overcast
3:06 PM 42.8 °F 39.3 °F 32.0 °F 66% 29.93 in 10.0 mi WSW 5.8 mph - N/A   Overcast
3:49 PM 46.4 °F 41.9 °F 32.0 °F 57% 29.93 in 10.0 mi West 9.2 mph - N/A   Overcast
3:54 PM 45.0 °F 40.1 °F 30.9 °F 58% 29.93 in 10.0 mi WSW 9.2 mph - N/A   Mostly Cloudy
4:22 PM 48.2 °F - 32.0 °F 54% 29.93 in 10.0 mi West 9.2 mph - N/A   Mostly Cloudy
4:54 PM 46.0 °F 43.9 °F 32.0 °F 58% 29.93 in 10.0 mi Variable 4.6 mph - N/A   Mostly Cloudy
6:23 PM 44.6 °F 40.7 °F 30.2 °F 57% 29.96 in 10.0 mi West 6.9 mph - N/A   Mostly Cloudy
6:54 PM 45.0 °F 41.8 °F 30.9 °F 58% 29.96 in 10.0 mi West 5.8 mph - N/A   Mostly Cloudy
7:54 PM 44.1 °F - 30.9 °F 60% 29.99 in 10.0 mi Calm Calm - N/A   Partly Cloudy
8:54 PM 42.1 °F - 30.9 °F 65% 30.01 in 10.0 mi Calm Calm - N/A   Scattered Clouds
9:54 PM 39.0 °F 36.8 °F 32.0 °F 76% 30.02 in 10.0 mi NNE 3.5 mph - N/A   Partly Cloudy
10:54 PM 39.9 °F 37.8 °F 32.0 °F 73% 30.04 in 10.0 mi NNE 3.5 mph - N/A   Clear
11:54 PM 41.0 °F 38.0 °F 30.0 °F 65% 30.04 in 9.0 mi NE 4.6 mph - N/A   Clear